| time (UTC) | temp F | wind direction | speed MPH | gust MPH | rain 1hr in | rain 24hr in | rain mn in | humidity % | barometer mb |
| 20260903232927 | 78 | 180 | 0.0 | 0.0 | 0.01 | 0.64 | 0.64 | 80 | 1035.1 |
| 20260903231928 | 78 | 180 | 0.0 | 0.0 | 0.01 | 0.64 | 0.64 | 78 | 1034.9 |
| 20260903225926 | 79 | 180 | 0.0 | 0.0 | 0.01 | 0.64 | 0.64 | 78 | 1034.8 |
| 20260903224928 | 80 | 180 | 0.0 | 0.0 | 0.01 | 0.64 | 0.64 | 78 | 1035.0 |
| 20260903223927 | 80 | 180 | 0.0 | 0.0 | 0.01 | 0.64 | 0.64 | 76 | 1034.6 |
| 20260903222926 | 80 | 157 | 0.0 | 0.0 | 0.00 | 0.63 | 0.63 | 75 | 1034.7 |
| 20260903221927 | 81 | 157 | 0.0 | 0.0 | 0.00 | 0.63 | 0.63 | 74 | 1034.6 |
| 20260903221026 | 81 | 157 | 0.0 | 0.0 | 0.00 | 0.63 | 0.63 | 73 | 1034.6 |
| 20260903220026 | 82 | 157 | 0.0 | 0.0 | 0.00 | 0.63 | 0.63 | 72 | 1034.5 |
| 20260903215026 | 82 | 157 | 0.0 | 0.0 | 0.00 | 0.63 | 0.63 | 71 | 1034.4 |
| 20260903214025 | 83 | 157 | 0.0 | 0.0 | 0.00 | 0.63 | 0.63 | 69 | 1034.3 |
| 20260903213026 | 83 | 157 | 0.0 | 0.0 | 0.00 | 0.63 | 0.63 | 68 | 1034.3 |
| 20260903212028 | 84 | 157 | 0.0 | 0.0 | 0.00 | 0.63 | 0.63 | 66 | 1034.2 |
| 20260903211027 | 85 | 157 | 0.0 | 0.0 | 0.00 | 0.63 | 0.63 | 66 | 1034.4 |
| 20260903210027 | 86 | 157 | 0.0 | 0.0 | 0.00 | 0.63 | 0.63 | 63 | 1034.4 |
| 20260903205025 | 87 | 180 | 0.0 | 0.0 | 0.00 | 0.63 | 0.63 | 62 | 1034.4 |
| 20260903204927 | 87 | 180 | 0.0 | 0.0 | 0.00 | 0.63 | 0.63 | 62 | 1034.5 |
| 20260903204843 | 87 | 180 | 0.0 | 0.0 | 0.00 | 0.63 | 0.63 | 63 | 1034.5 |
| 20260903203925 | 88 | 225 | 0.0 | 0.0 | 0.00 | 0.63 | 0.63 | 61 | 1034.4 |
| 20260903202926 | 89 | 225 | 0.0 | 0.0 | 0.00 | 0.63 | 0.63 | 60 | 1034.7 |
| 20260903200927 | 90 | 157 | 0.0 | 0.0 | 0.00 | 0.63 | 0.63 | 58 | 1034.8 |
| 20260903200026 | 91 | 159 | 0.0 | 0.0 | 0.00 | 0.63 | 0.63 | 56 | 1034.9 |
| 20260903195928 | 91 | 98 | 0.0 | 0.0 | 0.00 | 0.63 | 0.63 | 56 | 1034.8 |
| 20260903194927 | 92 | 180 | 0.0 | 0.0 | 0.00 | 0.63 | 0.63 | 53 | 1034.9 |
| 20260903193927 | 93 | 135 | 0.0 | 0.0 | 0.00 | 0.63 | 0.63 | 53 | 1035.0 |
| 20260903192926 | 93 | 67 | 0.0 | 0.0 | 0.00 | 0.63 | 0.63 | 53 | 1035.1 |
| 20260903191927 | 93 | 47 | 0.0 | 0.0 | 0.00 | 0.63 | 0.63 | 54 | 1035.3 |
| 20260903185927 | 92 | 360 | 0.0 | 0.0 | 0.00 | 0.63 | 0.63 | 58 | 1035.5 |
| 20260903184026 | 90 | 180 | 0.0 | 0.0 | 0.00 | 0.63 | 0.63 | 59 | 1035.7 |
| 20260903183028 | 90 | 135 | 0.0 | 0.0 | 0.00 | 0.63 | 0.63 | 59 | 1035.7 |
| 20260903182126 | 90 | 135 | 0.0 | 0.0 | 0.00 | 0.63 | 0.63 | 59 | 1035.7 |
| 20260903182028 | 90 | 135 | 0.0 | 0.0 | 0.00 | 0.63 | 0.63 | 58 | 1035.8 |
| 20260903181127 | 90 | 180 | 0.0 | 0.0 | 0.00 | 0.63 | 0.63 | 60 | 1036.0 |
| 20260903174327 | 88 | 180 | 0.0 | 0.0 | 0.00 | 0.63 | 0.63 | 62 | 1036.1 |
| 20260903173425 | 87 | 135 | 0.0 | 0.0 | 0.00 | 0.63 | 0.63 | 65 | 1036.2 |
| 20260903173328 | 87 | 100 | 0.0 | 0.0 | 0.00 | 0.63 | 0.63 | 65 | 1036.2 |
| 20260903172328 | 87 | 360 | 0.0 | 0.0 | 0.00 | 0.63 | 0.63 | 67 | 1036.5 |
| 20260903171328 | 87 | 180 | 0.0 | 0.0 | 0.00 | 0.63 | 0.63 | 65 | 1036.6 |
| 20260903170328 | 87 | 90 | 0.0 | 0.0 | 0.00 | 0.63 | 0.63 | 68 | 1036.7 |
| 20260903163326 | 83 | 163 | 0.0 | 0.0 | 0.00 | 0.63 | 0.63 | 73 | 1036.9 |
| 20260903162327 | 82 | 112 | 0.0 | 0.0 | 0.00 | 0.63 | 0.63 | 77 | 1037.3 |
| 20260903161425 | 81 | 135 | 0.0 | 0.0 | 0.00 | 0.63 | 0.63 | 77 | 1037.4 |
| 20260903160427 | 81 | 180 | 0.0 | 0.0 | 0.00 | 0.63 | 0.63 | 79 | 1037.7 |
| 20260903154427 | 81 | 157 | 0.0 | 0.0 | 0.00 | 0.64 | 0.63 | 78 | 1038.2 |
| 20260903153428 | 81 | 180 | 0.0 | 0.0 | 0.00 | 0.64 | 0.63 | 77 | 1038.1 |
| 20260903152527 | 81 | 180 | 0.0 | 0.0 | 0.00 | 0.64 | 0.63 | 81 | 1038.2 |
| 20260903152427 | 80 | 180 | 0.0 | 0.0 | 0.00 | 0.64 | 0.63 | 82 | 1038.1 |
| 20260903151427 | 79 | 180 | 0.0 | 0.0 | 0.00 | 0.64 | 0.63 | 86 | 1037.9 |
| 20260903151226 | 79 | 180 | 0.0 | 0.0 | 0.00 | 0.64 | 0.63 | 87 | 1037.9 |
| 20260903150227 | 79 | 225 | 0.0 | 0.0 | 0.00 | 0.64 | 0.63 | 90 | 1038.2 |
| 20260903145225 | 79 | 225 | 0.0 | 0.0 | 0.00 | 0.65 | 0.63 | 93 | 1038.0 |
| 20260903145126 | 79 | 225 | 0.0 | 0.0 | 0.00 | 0.65 | 0.63 | 92 | 1038.0 |
| 20260903144127 | 78 | 225 | 0.0 | 0.0 | 0.00 | 0.65 | 0.63 | 94 | 1038.2 |
| 20260903143125 | 77 | 90 | 0.0 | 0.0 | 0.00 | 0.65 | 0.63 | 94 | 1038.0 |
| 20260903142127 | 77 | 90 | 0.0 | 0.0 | 0.00 | 0.65 | 0.63 | 95 | 1038.1 |
| 20260903141125 | 76 | 75 | 0.0 | 0.0 | 0.00 | 0.65 | 0.63 | 96 | 1037.8 |
| 20260903141026 | 76 | 90 | 0.0 | 0.0 | 0.00 | 0.65 | 0.63 | 96 | 1037.8 |
| 20260903140025 | 76 | 45 | 0.0 | 0.0 | 0.00 | 0.65 | 0.63 | 96 | 1038.0 |
| 20260903135027 | 75 | 45 | 0.0 | 0.0 | 0.00 | 0.65 | 0.63 | 97 | 1037.6 |
| 20260903134928 | 75 | 45 | 0.0 | 0.0 | 0.00 | 0.65 | 0.63 | 97 | 1037.6 |
| 20260903133025 | 73 | 45 | 0.0 | 0.0 | 0.00 | 0.65 | 0.63 | 96 | 1037.4 |
| 20260903132925 | 73 | 45 | 0.0 | 0.0 | 0.00 | 0.65 | 0.63 | 97 | 1037.5 |
| 20260903131925 | 72 | 360 | 0.0 | 0.0 | 0.00 | 0.65 | 0.63 | 97 | 1037.5 |
| 20260903130926 | 71 | 45 | 0.0 | 0.0 | 0.00 | 0.65 | 0.63 | 97 | 1037.6 |
| 20260903125926 | 71 | 45 | 0.0 | 0.0 | 0.00 | 0.65 | 0.63 | 97 | 1037.9 |
| 20260903124926 | 71 | 45 | 0.0 | 0.0 | 0.00 | 0.65 | 0.63 | 96 | 1037.7 |
| 20260903121026 | 69 | 45 | 0.0 | 0.0 | 0.00 | 0.65 | 0.63 | 97 | 1037.3 |
| 20260903120027 | 69 | 225 | 0.0 | 0.0 | 0.00 | 0.65 | 0.63 | 97 | 1037.5 |
| 20260903115125 | 69 | 315 | 0.0 | 1.0 | 0.00 | 0.65 | 0.63 | 96 | 1036.6 |
| 20260903115029 | 69 | 315 | 0.0 | 0.0 | 0.00 | 0.65 | 0.63 | 97 | 1036.8 |
| 20260903114125 | 69 | 315 | 0.0 | 0.0 | 0.00 | 0.65 | 0.63 | 97 | 1037.8 |
| 20260903113126 | 69 | 315 | 0.0 | 0.0 | 0.00 | 0.65 | 0.63 | 97 | 1038.0 |
| 20260903112126 | 69 | 315 | 0.0 | 0.0 | 0.00 | 0.65 | 0.63 | 97 | 1038.1 |
| 20260903111126 | 69 | 315 | 0.0 | 0.0 | 0.00 | 0.65 | 0.63 | 97 | 1038.4 |
| 20260903105225 | 69 | 315 | 0.0 | 0.0 | 0.01 | 0.65 | 0.63 | 97 | 1039.0 |
| 20260903104226 | 69 | 315 | 0.0 | 0.0 | 0.02 | 0.65 | 0.63 | 96 | 1038.9 |
| 20260903103228 | 69 | 315 | 0.0 | 0.0 | 0.03 | 0.65 | 0.63 | 97 | 1038.5 |
| 20260903102227 | 69 | 337 | 0.0 | 0.0 | 0.06 | 0.65 | 0.63 | 97 | 1038.4 |
| 20260903101326 | 69 | 337 | 0.0 | 0.0 | 0.08 | 0.65 | 0.63 | 96 | 1038.5 |
| 20260903100326 | 69 | 337 | 0.0 | 0.0 | 0.11 | 0.65 | 0.63 | 97 | 1038.7 |
| 20260903095326 | 69 | 360 | 0.0 | 0.0 | 0.13 | 0.64 | 0.62 | 97 | 1038.0 |
| 20260903094326 | 69 | 45 | 0.0 | 0.0 | 0.13 | 0.63 | 0.61 | 97 | 1038.3 |
| 20260903093326 | 69 | 135 | 0.0 | 0.0 | 0.15 | 0.62 | 0.60 | 97 | 1038.7 |
| 20260903092328 | 69 | 135 | 0.0 | 0.0 | 0.17 | 0.59 | 0.57 | 95 | 1039.1 |
| 20260903091327 | 69 | 135 | 0.0 | 0.0 | 0.15 | 0.57 | 0.55 | 96 | 1038.8 |
| 20260903090426 | 69 | 135 | 0.0 | 0.0 | 0.12 | 0.54 | 0.52 | 96 | 1038.5 |
| 20260903085425 | 69 | 135 | 0.0 | 0.0 | 0.10 | 0.51 | 0.49 | 96 | 1039.2 |
| 20260903083426 | 69 | 135 | 0.0 | 0.0 | 0.06 | 0.47 | 0.45 | 96 | 1040.0 |
| 20260903083328 | 69 | 135 | 0.0 | 0.0 | 0.06 | 0.47 | 0.44 | 96 | 1040.0 |
| 20260903082427 | 69 | 135 | 0.0 | 0.0 | 0.01 | 0.42 | 0.40 | 95 | 1040.5 |
| 20260903081427 | 69 | 135 | 0.0 | 0.0 | 0.01 | 0.42 | 0.40 | 96 | 1039.8 |
| 20260903081326 | 69 | 135 | 0.0 | 0.0 | 0.01 | 0.42 | 0.40 | 96 | 1039.6 |
| 20260903081225 | 69 | 135 | 0.0 | 0.0 | 0.01 | 0.42 | 0.40 | 96 | 1039.5 |
| 20260903080225 | 69 | 135 | 0.0 | 0.0 | 0.00 | 0.41 | 0.39 | 96 | 1040.0 |
| 20260903075224 | 68 | 135 | 0.0 | 0.0 | 0.00 | 0.41 | 0.39 | 95 | 1039.9 |
| 20260903075126 | 68 | 135 | 0.0 | 0.0 | 0.00 | 0.41 | 0.39 | 95 | 1039.9 |
| 20260903074126 | 68 | 135 | 0.0 | 0.0 | 0.00 | 0.41 | 0.39 | 94 | 1039.6 |
| 20260903073225 | 68 | 135 | 0.0 | 0.0 | 0.01 | 0.41 | 0.39 | 94 | 1039.4 |
| 20260903073125 | 68 | 135 | 0.0 | 0.0 | 0.01 | 0.41 | 0.39 | 94 | 1039.4 |
| 20260903072127 | 68 | 135 | 0.0 | 0.0 | 0.01 | 0.41 | 0.39 | 95 | 1039.3 |
| 20260903071225 | 68 | 135 | 0.0 | 0.0 | 0.04 | 0.41 | 0.39 | 95 | 1039.3 |
| 20260903065227 | 69 | 135 | 0.0 | 0.0 | 0.35 | 0.41 | 0.39 | 94 | 1039.1 |
| 20260903065125 | 69 | 135 | 0.0 | 0.0 | 0.36 | 0.41 | 0.39 | 95 | 1039.1 |
| 20260903063227 | 69 | 135 | 0.0 | 0.0 | 0.37 | 0.40 | 0.38 | 94 | 1039.7 |
| 20260903062226 | 69 | 135 | 0.0 | 0.0 | 0.38 | 0.40 | 0.38 | 93 | 1039.8 |
| 20260903061227 | 69 | 135 | 0.0 | 0.0 | 0.35 | 0.37 | 0.35 | 93 | 1039.2 |
| 20260903061125 | 69 | 135 | 0.0 | 0.0 | 0.35 | 0.37 | 0.35 | 94 | 1039.2 |
| 20260903060128 | 69 | 135 | 0.0 | 0.0 | 0.28 | 0.31 | 0.27 | 93 | 1040.2 |
| 20260903055126 | 69 | 135 | 0.0 | 0.0 | 0.03 | 0.05 | 0.03 | 93 | 1041.8 |
| 20260903055028 | 69 | 135 | 0.0 | 0.0 | 0.03 | 0.05 | 0.02 | 93 | 1041.7 |
| 20260903053127 | 70 | 360 | 0.0 | 0.0 | 0.01 | 0.03 | 0.01 | 92 | 1040.6 |
| 20260903052127 | 70 | 360 | 0.0 | 0.0 | 0.00 | 0.02 | 0.00 | 91 | 1040.6 |
| 20260903044126 | 70 | 360 | 0.0 | 0.0 | 0.00 | 0.02 | 0.00 | 92 | 1040.2 |
| 20260903043224 | 70 | 360 | 0.0 | 0.0 | 0.00 | 0.02 | 0.00 | 92 | 1040.3 |
| 20260903042227 | 70 | 360 | 0.0 | 0.0 | 0.00 | 0.02 | 0.00 | 92 | 1040.4 |
| 20260903041228 | 70 | 360 | 0.0 | 0.0 | 0.00 | 0.02 | 0.00 | 91 | 1040.5 |
| 20260903040226 | 70 | 360 | 0.0 | 0.0 | 0.00 | 0.02 | 0.00 | 92 | 1040.7 |
| 20260903035324 | 70 | 360 | 0.0 | 0.0 | 0.00 | 0.02 | 0.02 | 92 | 1040.8 |
| 20260903034325 | 70 | 360 | 0.0 | 0.0 | 0.00 | 0.02 | 0.02 | 93 | 1040.9 |
| 20260903033423 | 70 | 360 | 0.0 | 0.0 | 0.00 | 0.02 | 0.02 | 93 | 1041.2 |
| 20260903032423 | 70 | 360 | 0.0 | 0.0 | 0.00 | 0.02 | 0.02 | 93 | 1040.8 |
| 20260903031426 | 70 | 5 | 0.0 | 0.0 | 0.00 | 0.02 | 0.02 | 92 | 1040.4 |
| 20260903030524 | 70 | 45 | 0.0 | 0.0 | 0.00 | 0.02 | 0.02 | 93 | 1040.6 |
| 20260903022525 | 70 | 315 | 0.0 | 0.0 | 0.00 | 0.02 | 0.02 | 92 | 1040.9 |
| 20260903021526 | 70 | 315 | 0.0 | 0.0 | 0.00 | 0.02 | 0.02 | 92 | 1040.9 |
| 20260903015623 | 70 | 315 | 0.0 | 0.0 | 0.00 | 0.02 | 0.02 | 91 | 1040.3 |
| 20260903014626 | 70 | 315 | 0.0 | 0.0 | 0.00 | 0.02 | 0.02 | 91 | 1040.3 |
| 20260903013723 | 70 | 315 | 0.0 | 0.0 | 0.00 | 0.02 | 0.02 | 91 | 1040.4 |
| 20260903012725 | 70 | 315 | 0.0 | 0.0 | 0.00 | 0.02 | 0.02 | 90 | 1040.5 |
| 20260903011726 | 70 | 298 | 0.0 | 0.0 | 0.00 | 0.02 | 0.02 | 90 | 1040.7 |
| 20260903005824 | 70 | 292 | 0.0 | 0.0 | 0.00 | 0.03 | 0.02 | 91 | 1040.8 |
| 20260903004824 | 70 | 292 | 0.0 | 0.0 | 0.00 | 0.03 | 0.02 | 91 | 1040.8 |
| 20260903003825 | 70 | 292 | 0.0 | 0.0 | 0.00 | 0.03 | 0.02 | 90 | 1040.8 |
| 20260903002825 | 70 | 292 | 0.0 | 0.0 | 0.00 | 0.04 | 0.02 | 90 | 1040.5 |
| 20260903001824 | 70 | 292 | 0.0 | 0.0 | 0.00 | 0.04 | 0.02 | 91 | 1040.5 |
| 20260903000825 | 71 | 270 | 0.0 | 0.0 | 0.00 | 0.04 | 0.02 | 91 | 1040.3 |
| 20260902234923 | 71 | 270 | 0.0 | 0.0 | 0.00 | 0.04 | 0.02 | 91 | 1040.2 |
| 20260902233823 | 71 | 270 | 0.0 | 0.0 | 0.00 | 0.04 | 0.02 | 90 | 1040.3 |